STARLINK-11146, 60729

Orbit data source: Space-Track

STARLINK-11146, 60729 is a payload satellite owned by SpaceX/Seattle (US) in LEO that was launched on Wed, 28 Aug 2024 UTC via an FALCON 9 launch vehicle from the Air Force Eastern Test Range (AFETR). Payload-class satellites include a variety of spacecraft equipped with specific instruments for various scientific and technological missions. These include communications satellites like Starlink; space stations such as the ISS; scientific satellites like the Hubble; Earth observation satellites from companies like Planet Labs, Umbra, and HawkEye 360; GPS; miniature CubeSats for education and research; and military/defense satellites.

Loading next visibility...
Identifier
60729, 2024-152K
Orbit
LEO
Country
Flag of USUS
Related business
Manufacturer
SpaceX/Seattle
Mission
Operational Commercial Communications
Bus & Motor
STARLINK V2MD, Unknown motor
Mass
960 kg wet, ~910 kg dry
Launch date (UTC)
2024-08-28 (1 year ago)
Launch vehicle
FALCON 9
Launch site
Air Force Eastern Test Range (AFETR)
Object type
Payload
Rocket body
Debris
Shape & HBR
Box + 2 Pan, 18.1 m
Radar Cross Section
36.964 m², Large (>1 m²)

Expand to show TLE details & history
Last TLE update: 16 hours ago

TLE from 16 hours ago
0 STARLINK-11146
1 60729U 24152K   25294.67373576  .00000687  00000-0  10525-4 0  9992
2 60729  53.1592  81.3535 0001009  85.7155 274.3978 15.69707595 67138
Epoch: 2025-10-21T16:10Z
TLE epoch observation values (Epoch: 2025-10-21T16:10:10.769Z)
Latitude
-0.00005°
Longitude
168.45028°
Altitude
360.597 km
Speed
7.694 km/s
True Right ascension
05h 25m 24s
True Declination
0° 00' 00"
Sunlit
Object was in full shadow at epoch
Visualization orbit readout
Latitude
Unknown
Longitude
Unknown
Altitude
Unknown
Speed
Unknown
Apparent Right ascension
Unknown
Apparent Declination
Unknown
Sunlit
N/A
Visualization observer readout
Local Sidereal Time
03:08:07
Azimuth
Unknown
Elevation
Unknown
Doppler factor
Unknown
Orbital elements
Apogee altitude
360.674 km
Perigee altitude
359.315 km
Semi-major axis
6,738.131 km
Eccentricity
0.0001
Inclination
53.1592°
RAAN
81.3535°
Arg. of periapsis
85.7155°
True anomaly
274.38627°
Mean anomaly
274.3978°
Eccentric anomaly
274.39204°
Mean motion
3.92404 °/min
Orbital period
91.74 mins
BSTAR
0.000010525
Loading maneuver chart data...
Computing Atmospheric mass density...
Loading historical data...
Loading historical data...
Loading historical data...
Loading historical data...
Loading historical data...
Loading historical data...
Loading historical data...

Documentation

Showing up to 5 results
|